TimeCDT,TemperatureF,Dew PointF,Humidity,Sea Level PressureIn,VisibilityMPH,Wind Direction,Wind SpeedMPH,Gust SpeedMPH,PrecipitationIn,Events,Conditions,WindDirDegrees,DateUTC
12:53 AM,72.0,70.0,93,29.88,10.0,SE,6.9,-,N/A,,Clear,140,2013-10-01 05:53:00
1:53 AM,72.0,70.0,93,29.88,10.0,SE,4.6,-,N/A,,Clear,140,2013-10-01 06:53:00
2:06 AM,71.6,69.8,94,29.89,10.0,SE,5.8,-,N/A,,Partly Cloudy,130,2013-10-01 07:06:00
2:20 AM,71.6,69.8,94,29.89,10.0,SE,5.8,-,N/A,,Mostly Cloudy,130,2013-10-01 07:20:00
2:35 AM,71.6,69.8,94,29.89,9.0,SE,5.8,-,N/A,,Overcast,140,2013-10-01 07:35:00
2:53 AM,72.0,71.1,97,29.88,8.0,SSE,5.8,-,N/A,,Overcast,150,2013-10-01 07:53:00
3:21 AM,71.6,71.6,100,29.89,1.8,SE,6.9,-,N/A,,Overcast,140,2013-10-01 08:21:00
3:38 AM,73.4,71.6,94,29.89,0.5,SE,6.9,-,N/A,Fog,Fog,140,2013-10-01 08:38:00
3:53 AM,73.0,72.0,96,29.88,0.2,SE,6.9,-,N/A,Fog,Fog,130,2013-10-01 08:53:00
4:23 AM,73.4,71.6,94,29.89,0.5,ESE,5.8,-,N/A,Fog,Fog,120,2013-10-01 09:23:00
4:53 AM,73.0,72.0,96,29.88,0.5,SE,5.8,-,N/A,Fog,Fog,130,2013-10-01 09:53:00
5:15 AM,73.4,73.4,100,29.90,0.2,SE,5.8,-,N/A,Fog,Fog,130,2013-10-01 10:15:00
5:43 AM,73.4,73.4,100,29.91,0.5,SE,3.5,-,N/A,Fog,Fog,130,2013-10-01 10:43:00
5:53 AM,73.9,73.0,97,29.90,0.2,SE,3.5,-,N/A,Fog,Fog,130,2013-10-01 10:53:00
6:06 AM,73.4,73.4,100,29.91,0.5,SE,5.8,-,N/A,Fog,Fog,130,2013-10-01 11:06:00
6:53 AM,75.0,73.0,94,29.91,0.8,ESE,5.8,-,N/A,,Mist,120,2013-10-01 11:53:00
7:07 AM,75.2,73.4,94,29.93,1.2,SE,6.9,-,N/A,,Overcast,130,2013-10-01 12:07:00
7:39 AM,75.2,73.4,94,29.94,0.5,ESE,6.9,-,N/A,Fog,Fog,120,2013-10-01 12:39:00
7:53 AM,75.0,73.0,94,29.94,0.5,ESE,6.9,-,N/A,Fog,Fog,120,2013-10-01 12:53:00
8:15 AM,75.2,73.4,94,29.95,1.5,ESE,8.1,-,N/A,,Overcast,120,2013-10-01 13:15:00
8:23 AM,75.2,73.4,94,29.95,2.5,SE,6.9,-,N/A,,Overcast,130,2013-10-01 13:23:00
8:34 AM,75.2,73.4,94,29.95,4.0,ESE,8.1,-,N/A,,Overcast,120,2013-10-01 13:34:00
8:53 AM,75.9,73.0,91,29.94,5.0,SE,5.8,-,N/A,,Overcast,130,2013-10-01 13:53:00
9:53 AM,77.0,73.9,90,29.96,6.0,SE,8.1,-,0.02,,Overcast,130,2013-10-01 14:53:00
10:17 AM,78.8,73.4,83,29.97,8.0,ESE,10.4,-,N/A,,Overcast,120,2013-10-01 15:17:00
10:45 AM,80.6,73.4,79,29.97,10.0,SE,8.1,-,N/A,,Overcast,130,2013-10-01 15:45:00
10:53 AM,81.0,73.9,79,29.96,10.0,ESE,5.8,-,N/A,,Overcast,120,2013-10-01 15:53:00
11:29 AM,84.2,73.4,70,29.97,10.0,ESE,11.5,-,N/A,,Mostly Cloudy,120,2013-10-01 16:29:00
11:53 AM,84.0,73.0,69,29.96,10.0,SE,11.5,-,N/A,,Mostly Cloudy,130,2013-10-01 16:53:00
12:15 PM,87.8,73.4,62,29.96,10.0,SSE,12.7,-,N/A,,Scattered Clouds,150,2013-10-01 17:15:00
12:53 PM,87.1,72.0,61,29.94,10.0,SSE,11.5,-,N/A,,Mostly Cloudy,150,2013-10-01 17:53:00
1:53 PM,88.0,72.0,59,29.92,10.0,SSE,8.1,-,N/A,,Partly Cloudy,160,2013-10-01 18:53:00
2:53 PM,88.0,73.0,61,29.90,10.0,SE,8.1,-,N/A,,Mostly Cloudy,140,2013-10-01 19:53:00
3:53 PM,81.0,69.1,67,29.91,10.0,SE,10.4,20.7,0.00,Rain-Thunderstorm,Light Rain,140,2013-10-01 20:53:00
4:23 PM,82.4,69.8,66,29.92,10.0,SSE,12.7,-,0.00,,Clear,150,2013-10-01 21:23:00
4:53 PM,84.0,71.1,65,29.91,10.0,South,6.9,-,0.00,,Clear,170,2013-10-01 21:53:00
5:53 PM,84.0,72.0,67,29.89,10.0,SE,8.1,-,N/A,,Clear,140,2013-10-01 22:53:00
6:53 PM,82.0,72.0,71,29.91,10.0,SE,5.8,-,N/A,,Clear,140,2013-10-01 23:53:00
7:53 PM,79.0,72.0,79,29.91,10.0,ESE,4.6,-,N/A,,Clear,120,2013-10-02 00:53:00
8:53 PM,77.0,71.1,82,29.94,10.0,ESE,4.6,-,N/A,,Clear,120,2013-10-02 01:53:00
9:53 PM,75.9,71.1,85,29.95,10.0,SE,5.8,-,N/A,,Clear,130,2013-10-02 02:53:00
10:53 PM,75.0,71.1,87,29.95,10.0,SE,4.6,-,N/A,,Clear,130,2013-10-02 03:53:00
11:08 PM,73.4,69.8,88,29.96,10.0,SE,4.6,-,N/A,,Partly Cloudy,130,2013-10-02 04:08:00
11:27 PM,75.2,71.6,89,29.96,10.0,SE,5.8,-,N/A,,Mostly Cloudy,140,2013-10-02 04:27:00
11:53 PM,75.0,71.1,87,29.95,10.0,SSE,4.6,-,N/A,,Scattered Clouds,150,2013-10-02 04:53:00